Weather History for Myrtle Beach, SC

Change the Weather History Date:

Monday, December 12, 2011

  Actual Average Record
Temperature  
Mean Temperature 44 °F -  
Max Temperature 48 °F 57 °F 78 °F (2007)
Min Temperature 39 °F 38 °F 25 °F (1988)
Degree Days  
Heating Degree Days 22    
Moisture  
Dew Point 35 °F    
Average Humidity 72    
Maximum Humidity 81    
Minimum Humidity 65    
Precipitation  
Precipitation 0.00 in - - ()
Sea Level Pressure  
Sea Level Pressure 30.42 in    
Wind  
Wind Speed 10 mph (North)    
Max Wind Speed 16 mph    
Max Gust Speed -    
Visibility 10 miles    
Events      
Averages and records for this station are not official NWS values.
T = Trace of Precipitation, MM = Missing Value Source: NWS Daily Summary

Daily Weather History Graph

Daily Weather History Graph

Search for Another Location

Airport:

Trip Planner

Search our weather history database for the weather conditions in past years. The results will help you decide how hot, cold, wet, or windy it might be!

Date:

Astronomy

Dec. 12, 2011 Rise Set
Actual Time 7:10 AM EST 5:07 PM EST
Civil Twilight 6:43 AM EST 5:35 PM EST
Nautical Twilight 6:12 AM EST 6:06 PM EST
Astronomical Twilight 5:41 AM EST 6:36 PM EST
Moon 7:14 PM EST (12/12) 8:42 AM EST (12/12)
Length of Visible Light 10h 52m
Length of Day
9h 57m
Waning Gibbous, 96% of the Moon is Illuminated
Dec 12
Waning Gibbous
Dec 17
Last Quarter
Dec 24
New
Jan 1
First Quarter
Jan 9
Full

Hourly Weather History & Observations

Time (EST) Temp. Windchill Dew Point Humidity Pressure Visibility Wind Dir Wind Speed Gust Speed Precip Events Conditions
12:15 AM 42.8 °F 37.5 °F 33.8 °F 70% 30.46 in 10.0 mi North 9.2 mph - N/A   Clear
12:35 AM 42.8 °F 38.0 °F 33.8 °F 70% 30.45 in 10.0 mi North 8.1 mph - N/A   Clear
12:55 AM 42.8 °F 38.0 °F 33.8 °F 70% 30.44 in 10.0 mi NNE 8.1 mph - N/A   Clear
1:15 AM 42.8 °F 36.2 °F 33.8 °F 70% 30.42 in 10.0 mi North 12.7 mph - N/A   Clear
1:35 AM 42.8 °F 37.5 °F 33.8 °F 70% 30.43 in 10.0 mi NNE 9.2 mph - N/A   Clear
1:55 AM 42.8 °F 37.5 °F 33.8 °F 70% 30.43 in 10.0 mi NNE 9.2 mph - N/A   Clear
2:15 AM 42.8 °F 37.0 °F 33.8 °F 70% 30.41 in 10.0 mi NNE 10.4 mph - N/A   Clear
2:35 AM 42.8 °F 36.6 °F 33.8 °F 70% 30.40 in 10.0 mi North 11.5 mph - N/A   Clear
2:55 AM 42.8 °F 36.2 °F 33.8 °F 70% 30.40 in 10.0 mi North 12.7 mph - N/A   Clear
3:15 AM 41.0 °F 34.7 °F 33.8 °F 76% 30.41 in 10.0 mi North 10.4 mph - N/A   Clear
3:35 AM 41.0 °F 34.7 °F 32.0 °F 70% 30.41 in 10.0 mi North 10.4 mph - N/A   Clear
3:55 AM 41.0 °F 35.2 °F 30.2 °F 65% 30.42 in 10.0 mi North 9.2 mph - N/A   Clear
4:15 AM 41.0 °F 33.9 °F 32.0 °F 70% 30.41 in 10.0 mi North 12.7 mph - N/A   Clear
4:35 AM 39.2 °F 31.6 °F 30.2 °F 70% 30.41 in 10.0 mi North 12.7 mph - N/A   Clear
4:55 AM 39.2 °F 32.0 °F 32.0 °F 75% 30.41 in 10.0 mi NNW 11.5 mph - N/A   Clear
5:15 AM 41.0 °F 35.2 °F 30.2 °F 65% 30.43 in 10.0 mi North 9.2 mph - N/A   Partly Cloudy
5:35 AM 41.0 °F 35.2 °F 33.8 °F 76% 30.42 in 10.0 mi North 9.2 mph - N/A   Mostly Cloudy
5:55 AM 41.0 °F 35.2 °F 33.8 °F 76% 30.43 in 10.0 mi North 9.2 mph - N/A   Mostly Cloudy
6:50 AM 41.0 °F 33.9 °F 33.8 °F 76% 30.44 in 10.0 mi North 12.7 mph - N/A   Scattered Clouds
7:50 AM 41.0 °F 34.3 °F 33.8 °F 76% 30.44 in 10.0 mi NNE 11.5 mph - N/A   Clear
8:50 AM 42.8 °F 36.6 °F 35.6 °F 76% 30.47 in 10.0 mi North 11.5 mph - N/A   Overcast
9:45 AM 44.6 °F 38.8 °F 33.8 °F 66% 30.50 in 10.0 mi North 11.5 mph - N/A   Overcast
10:45 AM 46.4 °F 40.4 °F 37.4 °F 71% 30.47 in 10.0 mi North 13.8 mph - N/A   Clear
11:45 AM 46.4 °F 40.4 °F 37.4 °F 71% 30.46 in 10.0 mi NNW 13.8 mph - N/A   Clear
12:48 PM 48.2 °F - 39.2 °F 71% 30.41 in 10.0 mi North 9.2 mph - N/A   Overcast
1:45 PM 48.2 °F - 37.4 °F 66% 30.41 in 10.0 mi NNW 13.8 mph - N/A   Overcast
2:45 PM 48.2 °F - 37.4 °F 66% 30.39 in 10.0 mi North 16.1 mph - N/A   Mostly Cloudy
3:45 PM 48.2 °F - 39.2 °F 71% 30.38 in 10.0 mi North 15.0 mph - N/A   Mostly Cloudy
4:45 PM 48.2 °F - 39.2 °F 71% 30.39 in 10.0 mi North 11.5 mph - N/A   Clear
5:50 PM 46.4 °F 42.9 °F 37.4 °F 71% 30.41 in 10.0 mi North 6.9 mph - N/A   Clear
6:50 PM 46.4 °F 43.5 °F 39.2 °F 76% 30.41 in 10.0 mi North 5.8 mph - N/A   Clear
7:50 PM 46.4 °F 41.1 °F 37.4 °F 71% 30.42 in 10.0 mi North 11.5 mph - N/A   Clear
8:50 PM 46.4 °F 41.1 °F 39.2 °F 76% 30.42 in 10.0 mi North 11.5 mph - N/A   Clear
9:50 PM 44.6 °F 40.2 °F 39.2 °F 81% 30.42 in 10.0 mi North 8.1 mph - N/A   Clear
10:55 PM 44.6 °F 40.2 °F 37.4 °F 76% 30.41 in 10.0 mi North 8.1 mph - N/A   Clear
11:15 PM 44.6 °F 40.7 °F 37.4 °F 76% 30.41 in 10.0 mi NNW 6.9 mph - N/A   Clear
11:35 PM 44.6 °F 41.4 °F 37.4 °F 76% 30.40 in 10.0 mi North 5.8 mph - N/A   Clear
11:55 PM 44.6 °F 40.7 °F 37.4 °F 76% 30.39 in 10.0 mi North 6.9 mph - N/A   Clear